| time (UTC) | temp F | wind direction | speed MPH | gust MPH | rain 1hr in | rain 24hr in | rain mn in | humidity % | barometer mb |
| 20260508090021 | 35 | 219 | 2.0 | 3.0 | 0.00 | 0.00 | 0.00 | 86 | 1004.2 |
| 20260508084509 | 35 | 240 | 0.0 | 4.0 | 0.00 | 0.01 | 0.00 | 87 | 1004.0 |
| 20260508083007 | 36 | 226 | 0.0 | 3.0 | 0.00 | 0.01 | 0.00 | 85 | 1004.0 |
| 20260508081509 | 36 | 234 | 1.0 | 3.0 | 0.00 | 0.01 | 0.00 | 87 | 1003.8 |
| 20260508080007 | 36 | 221 | 1.0 | 5.0 | 0.00 | 0.01 | 0.00 | 86 | 1003.8 |
| 20260508074505 | 35 | 243 | 1.0 | 2.0 | 0.00 | 0.15 | 0.00 | 87 | 1003.9 |
| 20260508073004 | 35 | 243 | 1.0 | 3.0 | 0.00 | 0.15 | 0.00 | 86 | 1003.9 |
| 20260508071506 | 36 | 261 | 1.0 | 2.0 | 0.00 | 0.15 | 0.00 | 84 | 1003.9 |
| 20260508070058 | 38 | 261 | 1.0 | 3.0 | 0.00 | 0.15 | 0.00 | 80 | 1003.9 |
| 20260508064556 | 38 | 263 | 0.0 | 1.0 | 0.00 | 0.19 | 0.00 | 80 | 1003.8 |
| 20260508063054 | 39 | 268 | 1.0 | 2.0 | 0.00 | 0.19 | 0.00 | 79 | 1004.0 |
| 20260508061552 | 40 | 283 | 0.0 | 1.0 | 0.00 | 0.19 | 0.00 | 79 | 1004.0 |
| 20260508060053 | 39 | 283 | 0.0 | 2.0 | 0.00 | 0.19 | 0.00 | 80 | 1004.0 |
| 20260508054548 | 39 | 246 | 0.0 | 2.0 | 0.00 | 0.22 | 0.00 | 78 | 1004.2 |
| 20260508053047 | 41 | 246 | 1.0 | 2.0 | 0.00 | 0.22 | 0.00 | 74 | 1004.3 |
| 20260508051545 | 41 | 246 | 1.0 | 2.0 | 0.00 | 0.22 | 0.00 | 75 | 1004.3 |
| 20260508050042 | 42 | 246 | 1.0 | 2.0 | 0.00 | 0.22 | 0.00 | 72 | 1004.6 |
| 20260508044536 | 44 | 246 | 0.0 | 3.0 | 0.00 | 0.23 | 0.00 | 68 | 1004.7 |
| 20260508043031 | 45 | 255 | 1.0 | 3.0 | 0.00 | 0.23 | 0.00 | 63 | 1004.7 |
| 20260508041528 | 46 | 270 | 2.0 | 6.0 | 0.00 | 0.23 | 0.00 | 60 | 1004.7 |
| 20260508040024 | 47 | 252 | 3.0 | 7.0 | 0.00 | 0.23 | 0.00 | 58 | 1004.7 |
| 20260508034523 | 48 | 263 | 2.0 | 7.0 | 0.00 | 0.27 | 0.23 | 56 | 1004.7 |
| 20260508033022 | 49 | 265 | 1.0 | 10.0 | 0.00 | 0.27 | 0.23 | 54 | 1004.7 |
| 20260508031521 | 49 | 333 | 3.0 | 9.0 | 0.00 | 0.27 | 0.23 | 52 | 1004.5 |
| 20260508030021 | 50 | 256 | 2.0 | 4.0 | 0.00 | 0.27 | 0.23 | 53 | 1004.6 |
| 20260508024520 | 50 | 343 | 2.0 | 4.0 | 0.00 | 0.30 | 0.23 | 53 | 1004.6 |
| 20260508023019 | 51 | 292 | 2.0 | 10.0 | 0.00 | 0.30 | 0.23 | 51 | 1004.7 |
| 20260508021526 | 51 | 273 | 3.0 | 11.0 | 0.00 | 0.30 | 0.23 | 50 | 1004.8 |
| 20260508020017 | 52 | 214 | 2.0 | 8.0 | 0.00 | 0.30 | 0.23 | 55 | 1004.7 |
| 20260508014517 | 53 | 329 | 4.0 | 10.0 | 0.00 | 0.30 | 0.23 | 59 | 1004.6 |
| 20260508013029 | 53 | 281 | 2.0 | 10.0 | 0.00 | 0.30 | 0.23 | 67 | 1004.4 |
| 20260508011516 | 53 | 269 | 3.0 | 12.0 | 0.00 | 0.30 | 0.23 | 68 | 1004.5 |
| 20260508010016 | 54 | 281 | 1.0 | 6.0 | 0.00 | 0.30 | 0.23 | 70 | 1004.3 |
| 20260508004529 | 54 | 286 | 1.0 | 6.0 | 0.00 | 0.30 | 0.23 | 67 | 1004.2 |
| 20260508003016 | 55 | 304 | 2.0 | 7.0 | 0.00 | 0.30 | 0.23 | 64 | 1003.9 |
| 20260508001518 | 55 | 278 | 2.0 | 4.0 | 0.00 | 0.30 | 0.23 | 63 | 1003.8 |
| 20260508000014 | 55 | 322 | 3.0 | 8.0 | 0.00 | 0.30 | 0.23 | 63 | 1003.4 |
| 20260507234512 | 55 | 335 | 2.0 | 4.0 | 0.00 | 0.30 | 0.23 | 63 | 1003.1 |
| 20260507233022 | 56 | 12 | 1.0 | 6.0 | 0.00 | 0.30 | 0.23 | 62 | 1002.7 |
| 20260507231511 | 56 | 312 | 2.0 | 8.0 | 0.00 | 0.30 | 0.23 | 60 | 1002.4 |
| 20260507230010 | 57 | 311 | 3.0 | 7.0 | 0.00 | 0.30 | 0.23 | 59 | 1002.3 |
| 20260507224511 | 57 | 282 | 3.0 | 10.0 | 0.00 | 0.30 | 0.23 | 56 | 1002.2 |
| 20260507223010 | 59 | 327 | 6.0 | 15.0 | 0.00 | 0.30 | 0.23 | 53 | 1002.0 |
| 20260507221516 | 61 | 260 | 3.0 | 7.0 | 0.00 | 0.30 | 0.23 | 44 | 1001.8 |
| 20260507220011 | 62 | 232 | 5.0 | 12.0 | 0.00 | 0.30 | 0.23 | 43 | 1001.6 |
| 20260507214510 | 62 | 226 | 4.0 | 10.0 | 0.00 | 0.30 | 0.23 | 44 | 1001.6 |
| 20260507213009 | 63 | 234 | 5.0 | 12.0 | 0.00 | 0.30 | 0.23 | 42 | 1001.6 |
| 20260507211629 | 62 | 252 | 3.0 | 6.0 | 0.00 | 0.30 | 0.23 | 44 | 1001.4 |
| 20260507210018 | 62 | 236 | 5.0 | 11.0 | 0.00 | 0.30 | 0.23 | 41 | 1001.4 |
| 20260507204506 | 62 | 259 | 4.0 | 11.0 | 0.00 | 0.30 | 0.23 | 42 | 1001.3 |
| 20260507203008 | 62 | 274 | 5.0 | 11.0 | 0.00 | 0.30 | 0.23 | 41 | 1001.3 |
| 20260507201508 | 62 | 275 | 2.0 | 9.0 | 0.00 | 0.30 | 0.23 | 42 | 1001.2 |
| 20260507200003 | 63 | 252 | 3.0 | 10.0 | 0.00 | 0.30 | 0.23 | 39 | 1001.1 |
| 20260507194503 | 63 | 321 | 7.0 | 18.0 | 0.00 | 0.30 | 0.23 | 38 | 1001.2 |
| 20260507193100 | 64 | 237 | 6.0 | 16.0 | 0.00 | 0.30 | 0.23 | 38 | 1001.4 |
| 20260507191557 | 63 | 290 | 2.0 | 6.0 | 0.00 | 0.30 | 0.23 | 47 | 1001.4 |
| 20260507190053 | 62 | 325 | 3.0 | 5.0 | 0.00 | 0.30 | 0.23 | 48 | 1001.5 |
| 20260507184603 | 61 | 255 | 2.0 | 10.0 | 0.00 | 0.30 | 0.23 | 48 | 1001.6 |
| 20260507183049 | 61 | 313 | 2.0 | 10.0 | 0.00 | 0.30 | 0.23 | 54 | 1001.9 |
| 20260507181548 | 60 | 350 | 2.0 | 7.0 | 0.00 | 0.30 | 0.23 | 53 | 1002.1 |
| 20260507180051 | 61 | 296 | 2.0 | 10.0 | 0.00 | 0.30 | 0.23 | 49 | 1002.0 |
| 20260507174550 | 61 | 279 | 2.0 | 10.0 | 0.00 | 0.30 | 0.23 | 49 | 1002.0 |
| 20260507173044 | 61 | 242 | 3.0 | 9.0 | 0.00 | 0.30 | 0.23 | 53 | 1002.1 |
| 20260507171549 | 60 | 329 | 3.0 | 11.0 | 0.00 | 0.30 | 0.23 | 50 | 1002.2 |
| 20260507170041 | 60 | 320 | 6.0 | 11.0 | 0.00 | 0.30 | 0.23 | 52 | 1002.4 |
| 20260507164539 | 58 | 237 | 5.0 | 11.0 | 0.00 | 0.30 | 0.23 | 54 | 1002.4 |
| 20260507163037 | 59 | 101 | 3.0 | 9.0 | 0.00 | 0.30 | 0.23 | 58 | 1002.6 |
| 20260507161539 | 58 | 355 | 3.0 | 10.0 | 0.00 | 0.30 | 0.23 | 57 | 1002.9 |
| 20260507160034 | 57 | 234 | 4.0 | 12.0 | 0.00 | 0.30 | 0.23 | 61 | 1003.1 |
| 20260507154536 | 57 | 234 | 2.0 | 14.0 | 0.00 | 0.30 | 0.23 | 56 | 1003.2 |
| 20260507153039 | 56 | 259 | 6.0 | 13.0 | 0.00 | 0.30 | 0.23 | 61 | 1003.3 |
| 20260507151526 | 56 | 5 | 4.0 | 9.0 | 0.00 | 0.30 | 0.23 | 67 | 1003.4 |
| 20260507150026 | 56 | 275 | 2.0 | 8.0 | 0.00 | 0.30 | 0.23 | 70 | 1003.8 |
| 20260507144521 | 55 | 267 | 3.0 | 9.0 | 0.00 | 0.30 | 0.23 | 73 | 1004.0 |
| 20260507143025 | 54 | 263 | 6.0 | 12.0 | 0.00 | 0.30 | 0.23 | 73 | 1003.9 |
| 20260507141518 | 54 | 282 | 4.0 | 10.0 | 0.00 | 0.30 | 0.23 | 75 | 1004.3 |
| 20260507140015 | 52 | 326 | 2.0 | 9.0 | 0.00 | 0.30 | 0.23 | 80 | 1004.7 |
| 20260507134515 | 51 | 276 | 2.0 | 9.0 | 0.00 | 0.30 | 0.23 | 81 | 1004.2 |
| 20260507133013 | 51 | 255 | 3.0 | 10.0 | 0.00 | 0.30 | 0.23 | 83 | 1004.3 |
| 20260507131518 | 51 | 290 | 3.0 | 10.0 | 0.00 | 0.30 | 0.23 | 85 | 1004.2 |
| 20260507130021 | 50 | 270 | 2.0 | 8.0 | 0.00 | 0.30 | 0.23 | 87 | 1004.1 |
| 20260507124511 | 49 | 232 | 0.0 | 5.0 | 0.00 | 0.31 | 0.23 | 90 | 1003.9 |
| 20260507123009 | 49 | 288 | 2.0 | 8.0 | 0.00 | 0.31 | 0.23 | 90 | 1004.7 |
| 20260507121507 | 48 | 293 | 1.0 | 8.0 | 0.00 | 0.31 | 0.23 | 91 | 1005.1 |
| 20260507120006 | 48 | 268 | 0.0 | 4.0 | 0.00 | 0.31 | 0.23 | 92 | 1004.8 |
| 20260507114504 | 48 | 318 | 3.0 | 10.0 | 0.00 | 0.31 | 0.23 | 92 | 1004.6 |
| 20260507113000 | 48 | 281 | 1.0 | 5.0 | 0.00 | 0.31 | 0.23 | 95 | 1004.4 |
| 20260507111559 | 48 | 263 | 1.0 | 4.0 | 0.00 | 0.31 | 0.23 | 95 | 1003.9 |
| 20260507110057 | 49 | 350 | 2.0 | 6.0 | 0.00 | 0.31 | 0.23 | 95 | 1003.9 |
| 20260507104556 | 49 | 289 | 2.0 | 5.0 | 0.00 | 0.31 | 0.23 | 95 | 1003.9 |
| 20260507103056 | 49 | 294 | 1.0 | 4.0 | 0.00 | 0.31 | 0.23 | 95 | 1003.9 |
| 20260507101557 | 49 | 261 | 2.0 | 4.0 | 0.00 | 0.31 | 0.23 | 95 | 1003.7 |
| 20260507100054 | 49 | 286 | 0.0 | 4.0 | 0.00 | 0.31 | 0.23 | 95 | 1004.1 |
| 20260507094553 | 49 | 331 | 1.0 | 7.0 | 0.00 | 0.31 | 0.23 | 95 | 1003.8 |
| 20260507093055 | 49 | 292 | 0.0 | 4.0 | 0.00 | 0.31 | 0.23 | 95 | 1002.6 |
| 20260507091551 | 49 | 284 | 2.0 | 5.0 | 0.00 | 0.31 | 0.23 | 95 | 1003.0 |